DateTimeUTC,F1_A11,F1_S11,BsB_S11,BsG_S11,BsR_S11,BbsB_S11,BbsG_S11,BbsR_S11,BaB_A11,BaG_A11,BaR_A11,Tu_S11,T_S11,Uu_S11,U_S11,P_S11,T1_A11
2021-05-30T18:00:00Z,00000200,20000000,,,,,,,-000.12,-000.39,-000.14,19.6,26.2,05.8,03.9,0658.7,31.1
2021-05-30T18:01:00Z,00000200,20000000,,,,,,,-000.03,0000.11,-000.02,19.6,26.2,05.8,03.9,0658.7,31.2
2021-05-30T18:02:00Z,00000200,20000000,,,,,,,-000.04,0000.38,0000.04,19.6,26.2,05.8,03.9,0658.7,31.1
2021-05-30T18:03:00Z,00000200,60000000,,,,,,,0000.19,-000.36,0000.02,19.6,26.2,05.8,03.9,0658.7,31.1
2021-05-30T18:04:00Z,00000200,40000000,0000.90,0001.31,0000.70,0000.61,0000.43,0000.36,0000.42,0000.61,0000.60,19.7,26.0,05.6,03.8,0659.6,31.1
2021-05-30T18:05:00Z,00000200,00000000,0001.45,0001.09,0000.80,0000.36,0000.48,0000.17,0000.20,0000.16,0000.04,19.7,26.0,05.7,03.9,0659.7,31.1
2021-05-30T18:06:00Z,00000200,00000000,0001.75,0000.92,0000.89,0000.42,0000.24,0000.41,0000.45,0000.29,0000.00,19.7,26.0,05.7,03.9,0659.7,31.1
2021-05-30T18:07:00Z,00000200,00000000,0001.44,0001.07,0000.52,0000.26,0000.31,0000.58,0000.52,0000.26,0000.41,19.7,26.0,05.7,03.9,0659.7,31.1
2021-05-30T18:08:00Z,00000200,00000000,0001.00,0001.20,0000.42,0000.54,0000.54,-000.29,0000.15,0000.21,0000.16,19.7,25.9,05.6,03.9,0659.8,31.1
2021-05-30T18:09:00Z,00000200,00000000,0001.80,0001.35,0000.77,0000.60,0000.31,0000.28,0000.36,0000.29,0000.10,19.7,25.9,05.6,03.8,0659.7,31.1
2021-05-30T18:10:00Z,00000200,00000000,0001.64,0001.16,0000.38,0000.48,0000.47,0000.17,0000.21,-000.08,0000.55,19.7,25.9,05.5,03.8,0659.7,31.1
2021-05-30T18:11:00Z,00000200,00000000,0001.03,0001.39,0000.74,0000.13,0000.21,-000.07,0000.42,0000.96,0000.20,19.7,25.9,05.3,03.7,0659.7,31.1
2021-05-30T18:12:00Z,00000200,00000000,0000.80,0000.82,0000.87,0000.56,0000.12,0000.07,0000.19,-000.01,-000.03,19.7,25.9,05.4,03.7,0659.8,31.1
2021-05-30T18:13:00Z,00000200,00000000,0001.35,0001.14,0000.50,0000.29,0000.34,0000.00,0000.45,0000.67,0000.48,19.7,25.9,05.5,03.8,0659.8,31.1
2021-05-30T18:14:00Z,00000200,00000000,0001.25,0001.26,0000.35,-000.23,0000.21,0000.35,0000.34,0000.01,0000.23,19.7,25.9,05.5,03.8,0659.7,31.1
2021-05-30T18:15:00Z,00000200,00000000,0001.49,0000.86,0000.67,0000.07,0000.18,0000.11,0000.50,0000.64,0000.00,19.7,25.9,05.6,03.9,0659.7,31.1
2021-05-30T18:16:00Z,00000200,00000000,0000.88,0001.09,0000.38,0000.01,0000.38,-000.06,0000.38,0000.13,0000.57,19.7,25.9,05.6,03.8,0659.8,31.1
2021-05-30T18:17:00Z,00000200,00000000,0000.67,0001.08,0000.35,0000.23,0000.33,-000.05,0000.42,0000.59,0000.10,19.7,25.9,05.7,03.9,0659.8,31.1
2021-05-30T18:18:00Z,00000200,00000000,0002.09,0001.21,0000.57,0000.83,0000.33,0000.06,0000.27,0000.15,0000.61,19.7,25.9,05.6,03.9,0659.8,31.1
2021-05-30T18:19:00Z,00000200,00000000,0001.13,0001.25,0000.70,0000.39,-000.00,-000.03,0000.68,0000.45,0000.48,19.6,25.9,05.7,03.9,0659.8,31.1
2021-05-30T18:20:00Z,00000200,00000000,0001.31,0001.12,0000.50,0000.50,0000.49,0000.22,-000.04,0000.37,-000.22,19.6,25.9,05.8,04.0,0659.8,31.1
2021-05-30T18:21:00Z,00000200,00000000,0001.49,0001.19,0000.34,-000.06,0000.18,-000.02,0000.67,0000.21,0000.53,19.6,25.9,05.7,03.9,0659.7,31.1
2021-05-30T18:22:00Z,00000200,00000000,0001.15,0001.06,0000.53,0000.24,0000.24,0000.03,0000.04,0000.74,-000.01,19.6,25.9,05.7,03.9,0659.8,31.1
2021-05-30T18:23:00Z,00000200,00000000,0001.17,0001.28,0000.64,0000.42,0000.16,-000.21,0000.24,-000.51,-000.26,19.7,25.9,05.5,03.8,0659.7,31.1
2021-05-30T18:24:00Z,00000200,00000000,0001.04,0001.17,0000.59,0000.36,0000.39,0000.07,0000.20,0000.53,0000.74,19.6,25.9,05.6,03.8,0659.7,31.1
2021-05-30T18:25:00Z,00000200,00000000,0000.93,0000.89,0000.69,0000.25,0000.15,0000.09,0000.59,0000.63,0000.47,19.7,25.9,05.6,03.8,0659.7,31.1
2021-05-30T18:26:00Z,00000200,00000000,0001.27,0001.20,0000.54,0000.33,0000.77,0000.28,0000.88,0000.53,0000.22,19.7,25.8,05.8,04.0,0659.8,31.1
2021-05-30T18:27:00Z,00000200,00000000,0001.65,0001.20,0000.41,0000.15,0000.38,-000.20,0000.03,0000.07,-000.03,19.7,25.8,05.8,04.0,0659.7,31.1
2021-05-30T18:28:00Z,00000200,00000000,0001.95,0001.33,0000.60,0000.12,0000.44,0000.12,0000.62,0000.75,0000.63,19.6,25.8,05.9,04.0,0659.7,31.1
2021-05-30T18:29:00Z,00000200,00000000,0001.72,0000.96,0000.51,0000.17,0000.30,-000.18,-000.01,-000.25,0000.32,19.7,25.8,05.9,04.0,0659.7,31.1
2021-05-30T18:30:00Z,00000200,00000000,0001.04,0000.94,0000.78,0000.22,0000.14,-000.17,-000.15,0000.23,-000.39,19.6,25.8,05.2,03.6,0659.7,31.1
2021-05-30T18:31:00Z,00000200,00000000,0001.90,0000.99,0000.62,0000.06,0000.36,0000.23,0000.33,0000.22,0000.30,19.6,25.8,05.2,03.6,0659.7,31.1
2021-05-30T18:32:00Z,00000200,00000000,0001.86,0001.00,0000.75,0000.41,0000.24,0000.26,0000.47,0000.11,0000.18,19.6,25.8,05.2,03.6,0659.7,31.1
2021-05-30T18:33:00Z,00000200,00000000,0001.36,0001.29,0000.62,0000.73,0000.35,0000.44,-000.00,0000.42,0000.41,19.6,25.8,05.2,03.6,0659.7,31.1
2021-05-30T18:34:00Z,00000200,00000000,0001.09,0001.21,0000.38,0000.03,0000.14,0000.19,0000.73,0000.34,0000.23,19.6,25.8,05.2,03.6,0659.7,31.1
2021-05-30T18:35:00Z,00000200,00000000,0001.39,0000.91,0000.62,0000.39,0000.30,0000.02,0000.38,0000.44,0000.26,19.6,25.8,05.3,03.6,0659.7,31.1
2021-05-30T18:36:00Z,00000200,00000000,0001.26,0001.03,0000.77,0000.59,0000.47,0000.08,0000.92,0001.01,0000.64,19.6,25.8,05.3,03.6,0659.7,31.1
2021-05-30T18:37:00Z,00000200,00000000,0001.58,0000.85,0000.82,0000.08,0000.20,0000.09,-000.40,-000.42,-000.05,19.6,25.8,05.5,03.8,0659.7,31.1
2021-05-30T18:38:00Z,00000200,00000000,0001.03,0001.01,0000.50,0000.64,0000.35,-000.27,0000.47,0000.22,-000.12,19.6,25.8,05.2,03.6,0659.7,31.1
2021-05-30T18:39:00Z,00000200,00000000,0001.15,0001.13,0000.54,0000.32,0000.09,-000.08,0000.78,0000.70,0000.57,19.6,25.8,05.2,03.6,0659.7,31.1
2021-05-30T18:40:00Z,00000200,00000000,0001.05,0001.11,0000.70,0000.61,0000.11,-000.06,0000.57,0000.67,0000.74,19.6,25.8,05.3,03.7,0659.8,31.1
2021-05-30T18:41:00Z,00000200,00000000,0001.18,0001.33,0000.46,0000.31,0000.22,0000.07,-000.04,-000.05,0000.08,19.6,25.8,05.4,03.7,0659.7,31.1
2021-05-30T18:42:00Z,00000200,00000000,0001.47,0001.00,0000.70,0000.70,0000.46,0000.21,0000.45,0000.28,0000.09,19.6,25.8,05.4,03.7,0659.7,31.1
2021-05-30T18:43:00Z,00000200,00000000,0002.00,0000.95,0000.46,0000.32,0000.35,-000.13,0000.90,0000.66,0000.40,19.6,25.8,05.5,03.8,0659.7,31.1
2021-05-30T18:44:00Z,00000200,00000000,0001.43,0001.03,0000.77,0000.49,0000.21,-000.18,-000.13,0000.23,0000.23,19.6,25.7,05.5,03.8,0659.7,31.1
2021-05-30T18:45:00Z,00000200,00000000,0001.80,0001.17,0000.58,0000.66,0000.36,-000.03,0000.45,0000.22,0000.45,19.6,25.8,05.5,03.8,0659.7,31.1
2021-05-30T18:46:00Z,00000200,00000000,0000.82,0001.04,0000.64,0000.31,0000.64,0000.01,0000.09,0000.25,0000.06,19.6,25.8,05.5,03.8,0659.7,31.1
2021-05-30T18:47:00Z,00000200,00000000,0001.70,0001.07,0000.59,-000.04,0000.40,0000.28,0000.76,0000.72,0000.51,19.6,25.8,05.5,03.8,0659.7,31.1
2021-05-30T18:48:00Z,00000200,00000000,0001.86,0000.96,0000.67,0000.24,0000.25,-000.05,0000.47,-000.04,-000.22,19.6,25.8,05.6,03.8,0659.7,31.1
2021-05-30T18:49:00Z,00000200,00000000,0001.39,0001.08,0000.76,0000.47,0000.23,0000.23,0000.22,0000.42,0000.65,19.6,25.7,05.6,03.8,0659.7,31.1
2021-05-30T18:50:00Z,00000200,00000000,0001.42,0000.97,0000.61,0000.32,0000.21,0000.04,0000.89,0000.66,0000.43,19.6,25.8,05.6,03.9,0659.7,31.1
2021-05-30T18:51:00Z,00000200,00000000,0000.87,0001.06,0000.28,0000.56,0000.47,-000.34,-000.10,-000.12,-000.13,19.6,25.7,05.7,03.9,0659.7,31.1
2021-05-30T18:52:00Z,00000200,00000000,0001.39,0001.09,0000.39,0000.60,0000.15,-000.39,0000.13,0000.25,-000.01,19.5,25.7,05.4,03.7,0659.7,31.1
2021-05-30T18:53:00Z,00000200,00000000,0001.93,0000.87,0000.64,0000.64,0000.50,-000.33,0000.49,0000.50,0000.61,19.6,25.7,05.4,03.7,0659.7,31.1
2021-05-30T18:54:00Z,00000200,00000000,0000.65,0001.02,0000.29,0000.97,-000.00,-000.16,0000.52,0000.37,0000.01,19.5,25.7,05.4,03.7,0659.7,31.1
2021-05-30T18:55:00Z,00000200,00000000,0001.03,0001.25,0000.73,0000.16,0000.35,-000.18,0000.16,0000.18,0000.34,19.5,25.7,05.4,03.7,0659.7,31.1
2021-05-30T18:56:00Z,00000200,00000000,0002.08,0001.09,0000.31,0000.45,0000.21,0000.24,0000.57,0000.46,0000.10,19.5,25.7,05.4,03.7,0659.7,31.1
2021-05-30T18:57:00Z,00000200,40000000,,,,,,,0000.29,0000.38,0000.29,19.6,25.8,05.4,03.7,0659.6,31.1
2021-05-30T18:58:00Z,00000200,60000000,,,,,,,-000.25,-000.13,0000.40,19.3,25.9,05.5,03.7,0658.7,31.1
2021-05-30T18:59:00Z,00000200,20000000,,,,,,,0000.18,0000.32,-000.18,19.3,26.0,05.3,03.6,0658.7,31.1
